Location: Bonny Doon Airfield
(37.0704°N, 122.1252°W)
Time: 21:43:54
(UTC-08:00)

Vanguard 1 Rocket - Pass Details

Date: 22 October 2017
Orbit: 655 x 4222 km, 34.3° (Epoch: 21 November)

Event Time Altitude Azimuth Distance (km) Brightness Sun altitude
Rises 03:37:15 0° 196° (SSW) 7,391 - -45.0°
Exits shadow 03:43:53 - 183° (S) 6,013 11.3 -43.8°
Reaches altitude 10° 03:46:34 10° 175° (S) 5,481 11.2 -43.3°
Maximum altitude 03:52:42 13° 151° (SSE) 4,489 10.9 -42.2°
Drops below altitude 10° 03:57:35 10° 126° (SE) 4,174 11.0 -41.2°
Sets 04:02:32 0° 101° (E) 4,516 11.6 -40.3°
